Terug naar catalogus

MENUT

ActiefWetenschapSSO
NORAD 55010·PAYLOAD·🇪🇸 Spain

Gelanceerd Jan 3, 2023 vanaf Cape Canaveral Space Force Station

Loading…

Volgende Passages (komende 24 uur)

TLE

VersSource: Space-Track

Epoch: Sep 14, 2026, 15:42 UTC

1 55010U 23001B   26257.65457189  .00133220  00000-0  82285-3 0  9993
2 55010  97.2989 329.2249 0003370 162.6043 197.5339 15.76732299206414

Volg MENUT in realtime met AllMySat

Download on the App Store